Orbital Elements at Epoch 2459000.5 (2020-May-31.0) TDB
Reference: JPL 25 (heliocentric ecliptic J2000)
Element | Value | Uncertainty (1-sigma) | Units |
e | .09191709021244351 | 3.9421e-08 | |
a | 2.46126911986801 | 1.3444e-08 | au |
q | 2.235036424140001 | 9.5378e-08 | au |
i | 8.989028808134028 | 4.514e-06 | deg |
node | 16.38477933506293 | 2.362e-05 | deg |
peri | 286.3523270622358 | 3.5241e-05 | deg |
M | 216.6058007273587 | 2.8043e-05 | deg |
tp | 2459562.279857492901 (2021-Dec-13.77985749) | 0.00011219 | TDB |
period | 1410.383054009847 3.86 | 1.1555e-05 3.164e-08 | d yr |
n | .255249805346489 | 2.0913e-09 | deg/d |
Q | 2.68750181559602 | 1.4679e-08 | au |
|
| | Orbit Determination Parameters
Additional Information
|